Flag for U.S.A. Weather past 2 weeks in Angels Camp, California, U.S.A.

Now
103 °F

Sunny.


Feels Like: 98 °F
Forecast: 63 / 104 °F
Wind: 12 mph from Northwest

Location: Modesto City-County-Sham Field

Current Time: Jul 29, 2015 at 7:46:41 PM

Latest Report: Jul 29, 2015 at 6:53 PM


Visibility: 10 mi

Pressure: 29.79 "Hg

Humidity: 12%

Dew point: 42 °F

Location of Angels CampLocation

Historic Weather in Angels Camp — Graph

°F

Angels Camp temperature yesterday

Maximum temperature yesterday: 100 °F (at 3:53 PM)
Minimum temperature yesterday: 64 °F (at 4:53 AM)
Average temperature yesterday: 83 °F

Past Weeks' High & Low Weather Summary

 TemperatureHumidityPressure
High105 °F (Jul 29, 4:53 PM)75% (Jul 15, 3:53 AM)30.08 "Hg (Jul 15, 3:53 AM)
Low60 °F (Jul 24, 4:53 AM)10% (Jul 22, 4:53 PM)29.67 "Hg (Jul 17, 6:53 PM)
Average80 °F39%29.87 "Hg
* Reported Jul 14 6:53 PM — Jul 29 6:53 PM, Angels Camp, Weather by CustomWeather, © 2015

Note: Actual official high and low records may vary slightly from our data, if they occured in-between our weather recording intervals... More about our weather records

Advertising

Angels Camp weather history for previous 24 hours

 ConditionsComfort  
Time TempWeatherWind HumidityBarometerVisibility
6:53 PM
Wed, Jul 29
103 °FSunny.12 mph12%29.79 "Hg10 mi
5:53 PM105 °FSunny.12 mph12%29.79 "Hg10 mi
4:53 PM105 °FSunny.9 mph12%29.80 "Hg10 mi
3:53 PM104 °FSunny.9 mph11%29.82 "Hg10 mi
2:53 PM103 °FSunny.9 mph11%29.83 "Hg10 mi
1:53 PM101 °FSunny.6 mph17%29.85 "Hg10 mi
12:53 PM98 °FSunny.5 mph16%29.86 "Hg10 mi
11:53 AM95 °FSunny.6 mph15%29.88 "Hg10 mi
10:53 AM91 °FSunny.3 mph19%29.88 "Hg10 mi
9:53 AM87 °FSunny.No wind23%29.88 "Hg10 mi
8:53 AM83 °FSunny.6 mph27%29.88 "Hg10 mi
7:53 AM76 °FSunny.No wind42%29.86 "Hg10 mi
6:53 AM69 °FClear.No wind59%29.85 "Hg10 mi
5:53 AM68 °FClear.No wind55%29.83 "Hg10 mi
4:53 AM69 °FClear.No wind53%29.82 "Hg10 mi
3:53 AM74 °FClear.No wind40%29.81 "Hg10 mi
2:53 AM73 °FClear.No wind44%29.80 "Hg10 mi
1:53 AM77 °FClear.3 mph33%29.80 "Hg10 mi
12:53 AM79 °FClear.5 mph31%29.81 "Hg10 mi
11:53 PM
Tue, Jul 28
80 °FClear.5 mph31%29.80 "Hg10 mi
10:53 PM84 °FClear.5 mph26%29.80 "Hg10 mi
9:53 PM86 °FClear.8 mph24%29.80 "Hg10 mi
8:53 PM89 °FSunny.8 mph27%29.78 "Hg10 mi
7:53 PM95 °FSunny.7 mph19%29.76 "Hg10 mi
Weather by CustomWeather, © 2015

See weather overviewHow to use our weather pages